Weather History for KMHE - July, 2013

Change the Weather History Date:

Tuesday, July 2, 2013

  Actual Average Record
Temperature  
Mean Temperature 73 °F 74 °F  
Max Temperature 87 °F 86 °F 103 °F (2012)
Min Temperature 59 °F 62 °F 43 °F (1945)
Degree Days  
Heating Degree Days 0 0  
Month to date heating degree days 0 0  
Since 1 June heating degree days 50 35  
Since 1 July heating degree days 0 0  
Cooling Degree Days 8 9  
Month to date cooling degree days 12 18  
Year to date cooling degree days 236 228  
Since 1 June cooling degree days 179 188  
Growing Degree Days 24 (Base 50)    
Moisture  
Dew Point 53 °F    
Average Humidity 55    
Maximum Humidity 84    
Minimum Humidity 25    
Precipitation  
Precipitation 0.00 in 0.13 in 2.50 in (1933)
Month to date precipitation 0.00 0.25  
Year to date precipitation 12.09 11.11  
Snow  
Snow 0.00 in - 0.00 in ()
Month to date snowfall 0.0  
Since 1 June snowfall 0.0  
Since 1 July snowfall 0.0  
Snow Depth 0.00 in    
Sea Level Pressure  
Sea Level Pressure 30.12 in    
Wind  
Wind Speed 4 mph (NNW)    
Max Wind Speed 18 mph    
Max Gust Speed 28 mph    
Visibility 10 miles    
Events      
T = Trace of Precipitation, MM = Missing Value Source: NWS Daily Summary

Daily Weather History Graph

Daily Weather History Graph

Search for Another Location

Airport or City:

Trip Planner

Search our weather history database for the weather conditions in past years. The results will help you decide how hot, cold, wet, or windy it might be!

Date:

Astronomy

Jul. 02, 2013 Rise Set
Actual Time 5:54 AM CDT 9:17 PM CDT
Civil Twilight 5:18 AM CDT 9:53 PM CDT
Nautical Twilight 4:32 AM CDT 10:40 PM CDT
Astronomical Twilight 3:33 AM CDT 11:38 PM CDT
Moon 2:03 AM CDT (7/2) 4:28 PM CDT (7/2)
Length of Visible Light 16h 34m
Length of Day
15h 22m
Waning Crescent, 26% of the Moon is Illuminated
Jul 2
Waning Crescent
Jul 8
New
Jul 15
First Quarter
Jul 22
Full
Jul 29
Last Quarter

Hourly Weather History & Observations

Time (CDT) Temp. Heat Index Dew Point Humidity Pressure Visibility Wind Dir Wind Speed Gust Speed Precip Events Conditions
12:53 AM 64.0 °F - 57.0 °F 78% 30.17 in 10.0 mi West 4.6 mph - N/A   Scattered Clouds
1:53 AM 63.0 °F - 57.0 °F 81% 30.17 in 10.0 mi West 5.8 mph - N/A   Partly Cloudy
2:53 AM 63.0 °F - 55.0 °F 75% 30.16 in 10.0 mi WNW 4.6 mph - N/A   Overcast
3:53 AM 61.0 °F - 55.0 °F 81% 30.17 in 10.0 mi NW 3.5 mph - N/A   Clear
4:53 AM 62.1 °F - 54.0 °F 75% 30.16 in 10.0 mi WNW 4.6 mph - N/A   Mostly Cloudy
5:53 AM 61.0 °F - 55.0 °F 81% 30.17 in 10.0 mi NNW 4.6 mph 27.6 mph N/A   Mostly Cloudy
6:53 AM 63.0 °F - 55.9 °F 78% 30.17 in 10.0 mi WNW 4.6 mph - N/A   Overcast
7:53 AM 64.0 °F - 57.0 °F 78% 30.17 in 10.0 mi WNW 4.6 mph - N/A   Mostly Cloudy
9:53 AM 75.0 °F - 61.0 °F 62% 30.16 in 10.0 mi NW 3.5 mph - N/A   Overcast
10:53 AM 80.1 °F 80.6 °F 57.9 °F 47% 30.15 in 10.0 mi North 4.6 mph - N/A   Overcast
11:53 AM 82.9 °F - 52.0 °F 34% 30.15 in 10.0 mi Variable 4.6 mph - N/A   Clear
12:53 PM 84.9 °F - 46.9 °F 27% 30.14 in 10.0 mi Calm Calm - N/A   Scattered Clouds
1:53 PM 84.9 °F - 45.0 °F 25% 30.12 in 10.0 mi North 5.8 mph - N/A   Partly Cloudy
2:53 PM 86.0 °F - 50.0 °F 29% 30.11 in 10.0 mi North 6.9 mph - N/A   Clear
3:53 PM 87.1 °F - 48.0 °F 26% 30.10 in 10.0 mi NE 9.2 mph - N/A   Clear
4:53 PM 86.0 °F - 46.9 °F 26% 30.09 in 10.0 mi ENE 6.9 mph - N/A   Clear
5:53 PM 86.0 °F - 46.9 °F 26% 30.07 in 10.0 mi NNE 5.8 mph - N/A   Clear
6:53 PM 84.9 °F - 48.0 °F 28% 30.06 in 10.0 mi NNE 4.6 mph - N/A   Clear
7:53 PM 82.9 °F 81.8 °F 53.1 °F 36% 30.06 in 10.0 mi Calm Calm - N/A   Clear
8:53 PM 78.1 °F - 55.0 °F 45% 30.06 in 10.0 mi Calm Calm - N/A   Clear
9:53 PM 71.1 °F - 57.9 °F 63% 30.06 in 10.0 mi ESE 5.8 mph - N/A   Clear
10:53 PM 73.9 °F - 57.9 °F 57% 30.06 in 10.0 mi South 3.5 mph - N/A   Clear
11:53 PM 68.0 °F - 57.9 °F 70% 30.06 in 10.0 mi ESE 4.6 mph - N/A   Clear